[[{"header":{"parameterUnit":"m.s-1","parameterCategory":1,"la1":30.2991,"la2":30.254,"lo1":-89.0895,"lo2":-89.0444,"dy":0.0017,"dx":0.0017,"nx":28,"ny":28,"refTime":"2025-01-04T09:00:00:Z","depth":0,"parameterNumber":2,"parameterNumberName":"U-component_of_WINDS"},"data":[0,0,0,0,0,0,0,0,0,0,0,0,0,0,0,0,0,0,0,0,0,0,0,0,0,0,0,0,0,0,0,0,0,0,0,0,0,0,0,0,0,0,0,0,0,0,0,0,0,0,0,0,0,0,0,0,0,0,-7.0092,-7.0093,0,-7.0108,-7.0108,-7.0108,-6.998,-6.9976,-6.9973,-6.9969,-6.9982,-6.9985,-6.9989,0,0,0,0,0,0,0,0,0,0,0,0,0,-6.9951,-6.9954,-7.0092,-7.0093,-7.0093,-7.0108,-7.0108,-7.0108,-6.998,-6.9976,-6.9972,-6.9968,-6.9981,-6.9985,-6.9989,0,0,0,0,0,0,0,0,0,0,0,0,0,-6.9994,-6.9955,-7.0092,-7.0031,-7.0026,-7.0108,-7.0108,-7.0108,-6.9981,-6.9976,-6.997,-6.9966,-6.9979,-6.9984,-6.999,-7.013,0,0,-7.0007,-7.0009,0,0,0,0,0,0,0,0,-6.9992,-6.9999,-7.004,-7.0035,-7.0029,-7.0036,-7.0062,-7.0115,-6.9983,-6.9998,-6.9969,-6.9963,-7.0004,-7.0007,-7.0022,-7.0131,-7.0131,-7.0007,-7.001,-7.0013,-7.0014,0,0,0,0,0,0,0,-6.9989,-6.9998,-7.0098,-7.004,-7.0034,-7.0002,-7.0002,-7.0072,-7.0031,-6.9996,-6.9987,-6.9991,-7.0,-7.0017,-7.0021,-7.0132,-7.0007,-7.0012,-7.0015,-7.0017,-7.0357,-7.0362,0,0,0,0,0,0,-6.9994,-6.9996,-7.0098,-7.0099,-6.9997,-7.0009,-7.0009,-7.0039,-7.003,-7.0023,-6.9995,-6.9985,-7.001,-7.0015,-7.0021,-7.0182,-7.0013,-7.0018,-7.0021,-7.0351,-7.0358,-7.0364,0,0,0,0,0,0,-6.9992,-7.0005,-7.0097,-7.0045,-7.0054,-7.0017,-7.0052,-7.0043,-7.0059,-7.0029,-7.0021,-7.002,-7.0006,-7.0013,-7.0104,-7.0181,-7.002,-7.0025,-7.0344,-7.0353,-7.0361,-7.0508,0,0,0,0,0,0,-6.9988,-7.0005,-7.0058,-7.0047,-7.0058,-7.0181,-7.0057,-7.0047,-7.0069,-7.0055,-7.0049,-7.0043,-7.0002,-7.0097,-7.011,-7.0186,-7.0029,-7.0337,-7.0348,-7.0358,-7.0496,-7.0521,-7.0542,0,0,0,0,0,-6.9984,-7.0098,-7.0061,-7.0074,-7.0123,-7.0185,-7.0191,-7.0142,-7.0076,-7.0128,-7.0109,-7.0044,-7.0173,-7.0107,-7.012,-7.0199,-7.0332,-7.0345,-7.0357,-7.0486,-7.0516,-7.0542,0,0,0,0,0,0,-7.0116,-7.0095,-7.0054,-7.0168,-7.018,-7.0164,-7.0228,-7.0176,-7.0205,-7.0191,-7.0129,-7.0129,-7.023,-7.0225,-7.0152,-7.0335,-7.024,-7.0256,-7.0333,-7.0362,-7.0384,-7.038,-7.0034,0,0,0,0,0,-7.016,-7.0213,-7.0191,-7.0294,-7.0302,-7.0265,-7.029,-7.0252,-7.0261,-7.0265,-7.0252,-7.0263,-7.0305,-7.0334,-7.0372,-7.0498,-7.0493,-7.0559,-7.0582,-7.0601,-7.0613,-7.0678,-7.0706,-7.0406,-7.0406,-7.0406,0,0,-7.0247,-7.0243,-7.0279,-7.0321,-7.0325,-7.038,-7.027,-7.0333,-7.0372,-7.0274,-7.0357,-7.0351,-7.0358,-7.0467,-7.0514,-7.0465,-7.0697,-7.0617,-7.0632,-7.0635,-7.0694,-7.0722,-7.0748,-7.0415,-7.0414,-7.0412,0,0,-7.0435,-7.0439,-7.0523,-7.0531,-7.054,-7.0515,-7.0537,-7.0529,-7.052,-7.0605,-7.0532,-7.0579,-7.0655,-7.0662,-7.0676,-7.0872,-7.0812,-7.0887,-7.1003,-7.1067,-7.1091,-7.1111,-7.1177,-7.1202,-7.0901,-7.0902,-7.0902,0,-7.0542,-7.0623,-7.0574,-7.0642,-7.0661,-7.0578,-7.0663,-7.0673,-7.0694,-7.0709,-7.0656,-7.0749,-7.0748,-7.0856,-7.0905,-7.092,-7.094,-7.0884,-7.1092,-7.1112,-7.113,-7.1192,-7.1218,-7.091,-7.0909,-7.0908,-7.0907,0,-7.0753,-7.0811,-7.0879,-7.0902,-7.093,-7.1007,-7.0968,-7.1003,-7.0965,-7.0946,-7.1033,-7.1031,-7.1065,-7.109,-7.1052,-7.1194,-7.1163,-7.1103,-7.1004,-7.1168,-7.1225,-7.1249,-7.0923,-7.0919,-7.0917,-7.0915,0,0,-7.1017,-7.1016,-7.1041,-7.105,-7.1057,-7.11,-7.1174,-7.121,-7.1239,-7.1259,-7.1316,-7.1385,-7.1329,-7.1345,-7.1308,-7.1365,-7.1517,-7.1297,-7.1296,-7.1334,-7.1669,-7.1711,-7.1739,-7.148,-7.1485,-7.1488,-7.1667,0,-7.1196,-7.1321,-7.1281,-7.1407,-7.1458,-7.1383,-7.1447,-7.1458,-7.1444,-7.1485,-7.1469,-7.1516,-7.1441,-7.145,-7.1504,-7.1487,-7.1582,-7.1475,-7.153,-7.1533,-7.1524,-7.177,-7.1813,-7.1982,-7.1689,-7.1693,-7.1696,0,-7.142,-7.1449,-7.1581,-7.1579,-7.1599,-7.1658,-7.1687,-7.173,-7.1741,-7.1726,-7.1747,-7.1699,-7.177,-7.1679,-7.1775,-7.1703,-7.1724,-7.172,-7.1726,-7.1724,-7.162,-7.1769,-7.2035,-7.2058,-7.1732,-7.1729,-7.1726,0,-7.1594,-7.1667,-7.1755,-7.1766,-7.1768,-7.181,-7.1812,-7.1818,-7.1843,-7.1871,-7.1885,-7.1921,-7.1939,-7.1968,-7.1931,-7.1868,-7.2032,-7.1937,-7.2019,-7.202,-7.2051,-7.2049,-7.2318,-7.2076,-7.2075,-7.2075,-7.2074,0,-7.1795,-7.1877,-7.1833,-7.1886,-7.1976,-7.1931,-7.2022,-7.2016,-7.2023,-7.2073,-7.2012,-7.206,-7.2011,-7.2056,-7.2028,-7.211,-7.2121,-7.2109,-7.2099,-7.2111,-7.2112,-7.2119,-7.2104,-7.2082,-7.208,-7.2079,-7.2078,0,-7.2001,-7.1976,-7.2065,-7.2061,-7.2062,-7.2128,-7.2124,-7.2173,-7.2157,-7.2221,-7.2234,-7.2208,-7.2256,-7.2225,-7.2274,-7.2255,-7.2362,-7.2339,-7.2358,-7.2349,-7.2432,-7.2422,-7.271,-7.2745,-7.2486,-7.2488,-7.2491,0,-7.2127,-7.2189,-7.2193,-7.2223,-7.2229,-7.2279,-7.2304,-7.2264,-7.2293,-7.2312,-7.2359,-7.2403,-7.2435,-7.2517,-7.2501,-7.2539,-7.2513,-7.2612,-7.2518,-7.2527,-7.2509,-7.2503,-7.2508,-7.2629,-7.2632,-7.2634,-7.2636,0,-7.2353,-7.2338,-7.2378,-7.2415,-7.2447,-7.2474,-7.2495,-7.2523,-7.2483,-7.2519,-7.2568,-7.2594,-7.2646,-7.2689,-7.2722,-7.2723,-7.2672,-7.2668,-7.2687,-7.2696,-7.2703,-7.2696,-7.2404,-7.2659,-7.2657,-7.2655,-7.2654,-7.2653,-7.2519,-7.257,-7.2581,-7.2628,-7.2641,-7.2663,-7.2708,-7.2699,-7.2741,-7.2779,-7.2754,-7.2813,-7.2824,-7.2862,-7.2871,-7.2916,-7.2875,-7.2905,-7.2912,-7.2918,-7.2928,-7.2702,-7.2922,-7.2921,-7.2921,-7.292,-7.292,0,-7.2737,-7.2742,-7.2786,-7.2818,-7.2856,-7.281,-7.2832,-7.2864,-7.2917,-7.2933,-7.2968,-7.3025,-7.3069,-7.3059,-7.3098,-7.3135,-7.3113,-7.3146,-7.314,-7.3141,-7.2964,-7.294,-7.3164,-7.3164,-7.3164,-7.3164,-7.3164,-7.3164,-7.2855,-7.2938,-7.2926,-7.3015,-7.3018,-7.3076,-7.3092,-7.3112,-7.3124,-7.3192,-7.3228,-7.3223,-7.3228,-7.3268,-7.3305,-7.3301,-7.3316,-7.3357,-7.3344,-7.3178,-7.3153,-7.313,-7.3107,-7.3362,-7.3363,-7.3516,-7.3518,-7.3519]},{"header":{"parameterUnit":"m.s-1","parameterCategory":1,"la1":30.2991,"la2":30.254,"lo1":-89.0895,"lo2":-89.0444,"dy":0.0017,"dx":0.0017,"nx":28,"ny":28,"refTime":"2025-01-04T09:00:00:Z","depth":0,"parameterNumber":3,"parameterNumberName":"V-component_of_WINDS"},"data":[0,0,0,0,0,0,0,0,0,0,0,0,0,0,0,0,0,0,0,0,0,0,0,0,0,0,0,0,0,0,0,0,0,0,0,0,0,0,0,0,0,0,0,0,0,0,0,0,0,0,0,0,0,0,0,0,0,0,1.5435,1.5436,0,1.5533,1.5534,1.5535,1.5559,1.5558,1.5557,1.5557,1.5653,1.5656,1.5659,0,0,0,0,0,0,0,0,0,0,0,0,0,1.5266,1.5269,1.5435,1.5436,1.5437,1.5533,1.5534,1.5535,1.5559,1.5558,1.5557,1.5556,1.5652,1.5655,1.5659,0,0,0,0,0,0,0,0,0,0,0,0,0,1.5349,1.527,1.5435,1.5461,1.5464,1.5532,1.5534,1.5536,1.5559,1.5558,1.5557,1.5556,1.565,1.5655,1.566,1.5708,0,0,1.5674,1.5676,0,0,0,0,0,0,0,0,1.5344,1.5355,1.5456,1.5459,1.5463,1.5533,1.551,1.5593,1.5559,1.5523,1.5557,1.5556,1.5613,1.5621,1.5641,1.5712,1.5717,1.5674,1.5677,1.5679,1.5681,0,0,0,0,0,0,0,1.5339,1.5351,1.5474,1.5457,1.5462,1.5467,1.5477,1.5526,1.5572,1.5526,1.5528,1.5539,1.5615,1.5637,1.5644,1.5718,1.5674,1.5679,1.5681,1.5683,1.5837,1.5838,0,0,0,0,0,0,1.5329,1.5346,1.547,1.5477,1.54,1.5471,1.5483,1.5511,1.5572,1.558,1.554,1.554,1.5629,1.5638,1.5647,1.571,1.5679,1.5684,1.5686,1.5836,1.5837,1.5838,0,0,0,0,0,0,1.5325,1.534,1.5467,1.5412,1.5429,1.5475,1.5506,1.5514,1.5535,1.5582,1.559,1.5554,1.5629,1.564,1.5694,1.5714,1.5686,1.569,1.5834,1.5836,1.5838,1.5835,0,0,0,0,0,0,1.532,1.5338,1.5357,1.5412,1.5432,1.5512,1.5508,1.5516,1.5544,1.5545,1.5597,1.5605,1.5629,1.5687,1.5698,1.572,1.5694,1.5833,1.5835,1.5837,1.5833,1.5836,1.5839,0,0,0,0,0,1.5314,1.5351,1.5358,1.5373,1.5457,1.5513,1.5524,1.5552,1.5545,1.5565,1.5596,1.5604,1.5709,1.5692,1.5705,1.5728,1.5831,1.5834,1.5837,1.5832,1.5836,1.5839,0,0,0,0,0,0,1.5295,1.5359,1.5367,1.5423,1.5463,1.5517,1.5543,1.5554,1.5595,1.5594,1.5625,1.5637,1.5689,1.5713,1.5693,1.578,1.577,1.5776,1.5762,1.5766,1.5768,1.5762,1.5698,0,0,0,0,0,1.5298,1.5339,1.5392,1.5436,1.5456,1.5496,1.5521,1.554,1.5581,1.5598,1.5632,1.5671,1.5714,1.5741,1.5782,1.5837,1.585,1.5859,1.5862,1.5864,1.5869,1.5902,1.5908,1.5848,1.5848,1.5848,0,0,1.5303,1.5343,1.5367,1.5434,1.5467,1.5509,1.551,1.5553,1.5585,1.5604,1.5658,1.5684,1.573,1.5785,1.5811,1.5807,1.5889,1.5868,1.5869,1.5873,1.5906,1.5911,1.5916,1.585,1.5849,1.5849,0,0,1.5334,1.5368,1.541,1.5444,1.5495,1.5522,1.5532,1.5585,1.5604,1.5659,1.5674,1.5712,1.5783,1.5817,1.5843,1.589,1.5899,1.5902,1.5917,1.5949,1.5954,1.5958,1.5977,1.5983,1.5906,1.5906,1.5906,0,1.5334,1.54,1.543,1.5475,1.5504,1.5525,1.5569,1.5599,1.566,1.568,1.5675,1.5768,1.58,1.5864,1.5876,1.5896,1.5909,1.5897,1.5951,1.5956,1.596,1.5978,1.5985,1.5907,1.5907,1.5907,1.5907,0,1.5398,1.5443,1.5471,1.5532,1.5565,1.5608,1.5645,1.5674,1.569,1.5717,1.5773,1.5813,1.5864,1.588,1.5895,1.5948,1.5944,1.5945,1.5936,1.5966,1.5983,1.5991,1.5907,1.5907,1.5907,1.5907,0,0,1.5419,1.5499,1.5509,1.5538,1.5597,1.5632,1.5677,1.5729,1.5754,1.5795,1.5835,1.5896,1.5898,1.5928,1.5946,1.5974,1.6012,1.5972,1.5974,1.598,1.6075,1.6075,1.6083,1.6019,1.602,1.6021,1.6072,0,1.546,1.5543,1.5572,1.564,1.5683,1.5705,1.5744,1.5784,1.5811,1.5851,1.588,1.5925,1.5923,1.5941,1.597,1.6002,1.6032,1.5998,1.6056,1.6057,1.6045,1.6092,1.6092,1.6138,1.6079,1.608,1.6081,0,1.5518,1.5563,1.5636,1.5692,1.5711,1.5746,1.5798,1.5836,1.5882,1.59,1.5934,1.5952,1.6,1.5988,1.6055,1.6031,1.6057,1.6076,1.6078,1.6086,1.6072,1.6102,1.6153,1.6161,1.6092,1.6091,1.609,0,1.5529,1.5608,1.5663,1.5686,1.5752,1.5777,1.5805,1.5851,1.5881,1.5926,1.5946,1.5994,1.6021,1.6058,1.6089,1.6077,1.6154,1.6144,1.6171,1.617,1.6187,1.6185,1.6244,1.62,1.62,1.62,1.62,0,1.5572,1.5616,1.5669,1.5703,1.5753,1.5787,1.5836,1.5865,1.5906,1.5946,1.5966,1.6003,1.604,1.6082,1.6105,1.6159,1.617,1.6186,1.6192,1.6185,1.6184,1.6203,1.6201,1.6202,1.6201,1.6201,1.6201,0,1.5593,1.563,1.5692,1.575,1.5766,1.5801,1.5851,1.5884,1.5913,1.5963,1.5977,1.6021,1.6072,1.6106,1.6169,1.6185,1.6244,1.6248,1.6229,1.6232,1.6258,1.6256,1.6332,1.6345,1.6291,1.6291,1.6292,0,1.5619,1.5654,1.5717,1.5747,1.5776,1.5822,1.5854,1.5889,1.5921,1.5978,1.6005,1.6057,1.6101,1.618,1.6218,1.6267,1.6274,1.6297,1.6281,1.6274,1.6277,1.6275,1.628,1.63,1.6301,1.6301,1.6301,0,1.5662,1.5679,1.5725,1.5778,1.5817,1.586,1.5903,1.5925,1.5967,1.6002,1.6056,1.609,1.6156,1.6208,1.6262,1.629,1.6303,1.6306,1.6315,1.6309,1.6298,1.6307,1.6238,1.6304,1.6304,1.6304,1.6304,1.6303,1.5687,1.5721,1.5772,1.5823,1.586,1.59,1.5936,1.597,1.6015,1.6074,1.6091,1.6146,1.6194,1.6267,1.6297,1.6341,1.6338,1.6351,1.6355,1.6358,1.6359,1.629,1.635,1.635,1.635,1.635,1.635,0,1.5733,1.5767,1.5814,1.5876,1.5916,1.5927,1.5975,1.6009,1.6058,1.6101,1.6145,1.6207,1.6258,1.6301,1.6354,1.6381,1.6388,1.6394,1.6393,1.64,1.6357,1.6345,1.6387,1.6387,1.6387,1.6387,1.6387,1.6387,1.5762,1.582,1.5843,1.592,1.5954,1.601,1.6037,1.6075,1.6111,1.618,1.6223,1.6251,1.6295,1.6351,1.6399,1.641,1.6429,1.6434,1.6447,1.6406,1.6402,1.6398,1.6387,1.6437,1.6438,1.6486,1.6486,1.6487]}]]